SPAINSAT

Last updated on Thu Sep 10 2026 00:02:55 GMT+0000 (Coordinated Universal Time)

1 28945U 06007A 26252.11676329 -.00000238 00000+0 00000+0 0 9995 2 28945 0.7741 85.0315 0004778 90.0768 184.8919 1.00270129 75056
UTC large
Height (km)
Speed (km/s)
/
Latitude / Longitude
Inclination (degrees)
Orbital Period (minutes)
Azimuth
Elevation
Range (km)
Doppler Factor

Next 0 passes for location: London (51.5072 / 0.1276)

No passes found over London.
SPAINSAT